{"data":{"norad_id":64273,"intl_designator":"2025-120T","name":"STARLINK-34334","alt_names":[],"object_type":"PAYLOAD","status":"ACTIVE","operator":null,"country":"US","launch_date":"2025-06-04","launch_site_code":"AFWTR","launch_vehicle":null,"mission":null,"orbit_class":"UNKNOWN","rcs_meters":null,"size_class":null,"mass_kg":null,"dimensions":null,"purposes":["comms"],"wikipedia_slug":null,"has_3d_model":false,"image_url":null,"decayed_at":null,"tle_current":{"epoch":"2026-09-19T08:51:54.082944Z","epoch_age_seconds":235336,"freshness":"STALE","line1":"1 64273U 25120T   26262.36937596  .00020087  00000+0  60393-3 0  9998","line2":"2 64273  53.1578 294.6426 0001268  91.4259 268.6888 15.34406138 73600","mean_motion":15.34406138,"eccentricity":0.0001268,"inclination_deg":53.1578,"raan_deg":294.6426,"arg_perigee_deg":91.4259,"mean_anomaly_deg":268.6888,"bstar":0.00060393,"rev_number":7360,"period_min":93.847382667339,"perigee_km":461.8175806092,"apogee_km":463.5524130676,"semimajor_km":6840.8219968384,"source":"CELESTRAK","updated_at":"2026-09-21T09:00:35.285137Z"}}}